COSMOS 2251 DEB

Satellite information

Favourite Embed

Satellite Type and Status

DEBRISIN ORBIT

Key statistics

Satellite COSMOS 2251 DEB at a glance.

Uptime

11868

Days in orbit

Revolutions

≈ 14.5

Per day

Orbit

LEO

Low Earth Orbit

Inclination

74.0

Latest

Satellite identification and parameters

Extended collection of information and parameters for COSMOS 2251 DEB.

Object identification

Identified? True

Debris? True

Object name: COSMOS 2251 DEB

International designator: 1993-036AGP

Object number (NORAD): 35026

Object ID (CCSDS): 35026

Country: COMMONWEALTH OF INDEPENDENT STATES (CIS)

Current information (Y/N): Y

RCS size: SMALL

Orbital parameters

Period: 99.063 minutes

Inclination: 74.0466 deg

SMA: 7091.981 km

Apoapsis: 772.214 km

Periapsis: 655.479 km

RAAN: 321.6997 deg

Eccentricy: 0.00823008

Argument of periapsis: 75.5866 deg

Mean anomaly: 300.606 deg

Mean motion: 14.53621651 rev/day

Mean motion (dot): 0.00000445 rev/day2

B* drag term: 0.00010864271 1/REarth

Two-line elements (TLE)

Creation date: Dec. 11, 2025, 10:54 a.m.

Reference frame: TEME

Reference center: EARTH

Epoch: Dec. 11, 2025, 4:54 a.m. UTC

TLE line 0: 0 COSMOS 2251 DEB

TLE line 1: 1 35026U 93036AGP 25345.20472574 .00000445 00000-0 10864-3 0 9992

TLE line 2: 2 35026 74.0466 321.6997 0082301 75.5866 300.6060 14.53621651881212

Live tracking on map

Real-time ground track for satellite COSMOS 2251 DEB.

In-orbit conjunctions

A list of the most updated potential collisions computed for object COSMOS 2251 DEB.

Target Orbit TCA Probability of collision Miss distance Type
COSMOS 2251 DEB LEO 2025-05-16 00:23:32 0.0001999506 334.0 (m) DEBRIS

Associated space launch

Military communications satellite. Destroyed in a collision with Iridium 33.

COSMOS 2251 DEB was lifted into orbit during the mission ‘Kosmos-3M | Strela-2M 51’, on board a Kosmos-3M space rocket.

The launch took place on June 16, 1993, 4:17 a.m. from 132/1 (132L).

For more information about the launch, click the button.

Launch to space Kosmos-3M | Strela-2M 51
Kosmos-3M | Strela-2M 51

Agency: N/A

Status: Launch Successful

Launch date: June 16, 1993, 4:17 a.m. UTC

Rocket: Kosmos-3M

Launch pad: 132/1 (132L)

Location: Plesetsk Cosmodrome, Russian Federation

...

Latest news about this satellite

There are no fresh news available about this satellite. Check back as we update our databases every day.


Newsletter sign-up

Weekly statistics, charts and insights to help you stay on top of the space industry.